Regional Weather Roundup
Issued by NWS

Home | Current Version | Previous Version | Graphics & Text | Print | Product List | Glossary On
Versions: 1 2 3 4 5 6 7 8 9 10 11 12 13 14 15 16 17 18 19 20 21 22 23 24 25 26 27 28 29 30 31 32 33 34 35 36 37 38 39 40 41 42 43 44 45 46 47 48 49 50
140
ASUS44 KMEG 211610
RWRTN
TENNESSEE HOURLY STATE WEATHER ROUNDUP
NATIONAL WEATHER SERVICE MEMPHIS TN
1000 AM CST SUN JAN 21 2018

TNZ002-004-019-021-049-052-054-088>092-211700-
WEST TENNESSEE

CITY           SKY/WX    TMP DP  RH WIND       PRES   REMARKS
MEMPHIS INTL   PTSUNNY   61  52  72 S12       30.13R
NWS MEMPHIS      N/A     58 N/A N/A MISG        N/A
JACKSON        CLOUDY    57  51  80 S13       30.14S
DYERSBURG      CLOUDY    55  50  83 S7        30.13R
SOMERVILLE     CLOUDY    59  52  77 S9        30.13S
COVINGTON      CLOUDY    57  52  82 S12       30.13R
UNION CITY     CLOUDY    55  50  82 S15       30.11R
BOLIVAR        CLOUDY    59  52  77 S10       30.14S
PARIS          CLOUDY    52  48  87 S12       30.13R
HUNTINGDON     CLOUDY    55  50  82 S13       30.13S
LEXINGTON      CLOUDY    54  48  82 S8        30.17S
SELMER         CLOUDY    54  46  76 S8        30.16S
SAVANNAH       CLOUDY    55  46  71 S10G16    30.17F
$$

TNZ008-025-027-028-033-062-065-066-211700-
NORTH MIDDLE TENNESSEE

CITY           SKY/WX    TMP DP  RH WIND       PRES   REMARKS
NASHVILLE      PTSUNNY   61  46  57 SW14G22   30.19F
PORTLAND       PTSUNNY   57  45  62 S14       30.16F
CLARKSVILLE    CLOUDY    56  46  69 SW14      30.15R
SMYRNA         PTSUNNY   59  46  62 S9G17     30.20F
COOKEVILLE     PTSUNNY   55  41  58 VRB5      30.23S
GALLATIN       CLOUDY    57  43  58 CALM      30.21F
CROSSVILLE     CLOUDY    52  38  58 S6        30.25S
$$

TNZ061-075-076-078-094-096-097-211700-
SOUTH MIDDLE TENNESSEE

CITY           SKY/WX    TMP DP  RH WIND       PRES   REMARKS
FAYETTEVILLE   MOSUNNY   57  41  54 S13       30.23F
TULLAHOMA      PTSUNNY   59  43  55 SW12G17   30.23F
WINCHESTER     SUNNY     61  43  51 S5        30.25S
MCMINNVILLE    MOSUNNY   59  41  51 SW10G20   30.23S
COLUMBIA       PTSUNNY   61  43  51 SW18      30.18S
SHELBYVILLE    MOSUNNY   57  43  58 S8G15     30.22F
$$

TNZ017-018-042-046-047-211700-
NORTHEAST TENNESSEE

CITY           SKY/WX    TMP DP  RH WIND       PRES   REMARKS
TRI CITIES     CLOUDY    46  38  73 CALM      30.29R
ELIZABETHTON   CLOUDY    50  39  66 E3        30.28S
$$

TNZ012-013-036-069-073-074-211700-
CENTRAL EAST TENNESSEE

CITY           SKY/WX    TMP DP  RH WIND       PRES   REMARKS
KNOXVILLE      CLOUDY    46  38  73 NW5       30.28R
OAK RIDGE      CLOUDY    50  38  63 VRB5      30.29R
GATLINBURG     CLOUDY    46  39  76 CALM      30.28S
MORRISTOWN     CLOUDY    50  39  66 CALM      30.27S
JACKSBORO      CLOUDY    46  37  71 NE3       30.31R
$$

TNZ083-085-099-211700-
SOUTHEAST TENNESSEE

CITY           SKY/WX    TMP DP  RH WIND       PRES   REMARKS
CHATTANOOGA    PTSUNNY   49  36  61 CALM      30.28S
DAYTON         CLOUDY    46  39  76 CALM      30.28S
$$

SKY/WX REPORTED AS FAIR MEANS FEW OR NO CLOUDS BELOW
12 THOUSAND FEET.





USA.gov is the U.S. government's official web portal to all federal, state and local government web resources and services.